Location: Chicago
(41.8500°N, 87.6500°W)
Time: 05:40:19
(UTC-06:00)

Hubble Space Telescope - Visible Passes

Search period start: 20 February 2018 00:00
Search period end: 02 March 2018 00:00
Orbit: 537 x 541 km, 28.5° (Epoch: 19 February)

Date Brightness Start Highest point End Pass type
(mag) Time Alt. Az. Time Alt. Az. Time Alt. Az.
22 Feb 3.2 06:00:46 10° SSW 06:02:36 13° S 06:04:25 10° SSE visible
23 Feb 3.2 05:50:26 10° SSW 05:52:11 12° S 05:53:55 10° SSE visible
24 Feb 3.2 05:40:14 10° SSW 05:41:46 12° S 05:43:19 10° SSE visible
25 Feb 3.2 05:30:11 10° SSW 05:31:21 11° S 05:32:31 10° S visible
